Location: Hac?musa Deresi
(39.1694°N, 32.2508°E)
Time: 11:50:10
(UTC+00:00)

NOSS 3 (A) - Pass Details

Date: 22 April 2026
Orbit: 160 x 953 km, 63.3° (Epoch: 23 April)

Event Time Altitude Azimuth Distance (km) Brightness Sun altitude
Rises 17:30:57 0° 205° (SSW) 1,798 8.0 -10.9°
Reaches altitude 10° 17:32:57 10° 199° (SSW) 907 6.4 -11.2°
Maximum altitude 17:34:49 46° 122° (ESE) 268 3.3 -11.6°
Enters shadow 17:35:24 29° 66° (ENE) 376 4.2 -11.7°
